M I D A S
Marine Information and Data Acquisition System
Tripno 2107 of the Zeeleeuw from 2011-05-23 06:25:37 to 2011-05-23 16:36:08
Back to CruiseResearch ActivitiesStationsMapUnderway DataData graphs

EquipmentUnitsComments
TimeDGPSUTC
LatitudeDGPSDM.mWGS84
LongitudeDGPSDM.mWGS84
SpeedMeteo Stationm/sRelative wind speed
DirectionMeteo StationdegRelative wind direction
TemperatureMeteo Stationdeg CelciusAir temperature
PressureMeteo StationPaAtmospheric pressure
HumidityMeteo Station%Relative humidity
Missing or incorrect values are displayed as -999
Metereological data collected by the RV Zeeleeuw from 2011-05-23 06:20:28 to 2011-05-23 16:52:40
                                                                                    Next 1000 lines
Time Latitude Longitude Speed Direction Temperature Pressure Humidity
2011-05-23 06:20:38 51°13.637 2°56.01 -999 37 11.3 102350 41
2011-05-23 06:20:43 51°13.638 2°56.005 2.7 37 11.3 102350 41
2011-05-23 06:20:48 51°13.64 2°55.998 2.5 30 11.3 102350 41
2011-05-23 06:20:53 51°13.642 2°55.991 3.5 36 11.3 102350 41
2011-05-23 06:20:59 51°13.644 2°55.982 2.9 33 11.3 102350 41
2011-05-23 06:21:05 51°13.647 2°55.972 3.5 38 11.3 102350 41
2011-05-23 06:21:10 51°13.65 2°55.962 3.4 31 11.4 102350 41
2011-05-23 06:21:16 51°13.654 2°55.951 0.3 38 11.4 102350 41
2011-05-23 06:21:21 51°13.657 2°55.941 0.2 26 11.4 102350 42
2011-05-23 06:21:26 51°13.66 2°55.931 0.2 35 11.4 102350 42
2011-05-23 06:21:31 51°13.662 2°55.921 0.1 78 11.4 102350 41
2011-05-23 06:21:36 51°13.665 2°55.912 0.1 38 11.4 102350 41
2011-05-23 06:21:41 51°13.668 2°55.902 0.1 41 11.4 102350 40
2011-05-23 06:21:46 51°13.671 2°55.892 5.4 43 11.4 102350 40
2011-05-23 06:21:51 51°13.673 2°55.883 6.1 81 11.4 102350 41
2011-05-23 06:21:56 51°13.676 2°55.874 5.3 32 11.4 102350 41
2011-05-23 06:22:01 51°13.678 2°55.865 4.6 43 11.4 102350 41
2011-05-23 06:22:05 51°13.68 2°55.859 3.7 43 11.4 102350 41
2011-05-23 06:22:11 51°13.682 2°55.848 4.7 81 11.4 102350 41
2011-05-23 06:22:16 51°13.684 2°55.841 3.2 36 11.4 102350 41
2011-05-23 06:22:21 51°13.686 2°55.833 2.2 38 11.4 102350 40
2011-05-23 06:22:25 51°13.687 2°55.827 0.4 37 11.4 102350 40
2011-05-23 06:22:30 51°13.689 2°55.819 0.2 42 11.4 102350 40
2011-05-23 06:22:35 51°13.69 2°55.812 0.1 35 11.4 102350 40
2011-05-23 06:22:40 51°13.691 2°55.805 -999 41 11.4 102350 41
2011-05-23 06:22:45 51°13.692 2°55.797 4.1 31 11.4 102350 41
2011-05-23 06:22:49 51°13.693 2°55.792 4.8 25 11.4 102350 41
2011-05-23 06:22:54 51°13.694 2°55.785 5.8 37 11.4 102350 41
2011-05-23 06:22:59 51°13.694 2°55.779 4.8 21 11.4 102350 41
2011-05-23 06:23:04 51°13.695 2°55.772 4.1 43 11.4 102350 41
2011-05-23 06:23:09 51°13.695 2°55.766 4.8 44 11.4 102350 42
2011-05-23 06:23:13 51°13.695 2°55.761 4 43 11.4 102350 42
2011-05-23 06:23:18 51°13.695 2°55.755 1.9 43 11.4 102350 41
2011-05-23 06:23:23 51°13.695 2°55.75 0.1 35 11.4 102350 41
2011-05-23 06:23:28 51°13.695 2°55.745 0.1 24 11.4 102350 41
2011-05-23 06:23:33 51°13.695 2°55.741 3 31 11.4 102350 41
2011-05-23 06:23:37 51°13.695 2°55.738 3.1 22 11.4 102350 41
2011-05-23 06:23:42 51°13.694 2°55.736 4.7 37 11.4 102350 41
2011-05-23 06:23:48 51°13.694 2°55.733 3.6 25 11.4 102350 41
2011-05-23 06:23:52 51°13.694 2°55.732 1.7 33 11.4 102350 41
2011-05-23 06:23:57 51°13.694 2°55.731 2.2 28 11.4 102350 40
2011-05-23 06:24:02 51°13.694 2°55.73 0.1 35 11.4 102350 40
2011-05-23 06:24:08 51°13.695 2°55.729 0.1 24 11.4 102350 40
2011-05-23 06:24:12 51°13.695 2°55.729 -999 35 11.4 102350 40
2011-05-23 06:24:17 51°13.695 2°55.729 -999 78 11.4 102350 40
2011-05-23 06:24:22 51°13.696 2°55.729 -999 35 11.4 102350 40
2011-05-23 06:24:28 51°13.697 2°55.729 -999 24 11.4 102350 41
2011-05-23 06:24:33 51°13.698 2°55.73 -999 35 11.4 102350 41
2011-05-23 06:24:37 51°13.699 2°55.73 -999 23 11.5 102350 41
2011-05-23 06:24:42 51°13.701 2°55.73 0.1 30 11.5 102350 41
2011-05-23 06:24:47 51°13.703 2°55.73 0.3 20 11.5 102350 41
2011-05-23 06:24:53 51°13.705 2°55.731 2.2 35 11.5 102350 41
2011-05-23 06:24:57 51°13.707 2°55.731 2.5 20 11.5 102350 41
2011-05-23 06:25:02 51°13.71 2°55.73 1.8 34 11.5 102350 41
2011-05-23 06:25:07 51°13.713 2°55.73 1 23 11.5 102350 41
2011-05-23 06:25:12 51°13.716 2°55.728 0.2 265 11.5 102350 41
2011-05-23 06:25:17 51°13.72 2°55.727 0.1 258 11.5 102350 42
2011-05-23 06:25:22 51°13.724 2°55.725 0.1 257 11.5 102350 42
2011-05-23 06:25:27 51°13.729 2°55.722 -999 258 11.5 102350 41
2011-05-23 06:25:32 51°13.733 2°55.718 2.5 269 11.5 102350 41
2011-05-23 06:25:37 51°13.738 2°55.714 2 270 11.5 102360 41
2011-05-23 06:25:42 51°13.744 2°55.709 0.1 261 11.5 102360 41
2011-05-23 06:25:47 51°13.75 2°55.704 0.1 263 11.5 102350 41
2011-05-23 06:25:52 51°13.755 2°55.698 -999 240 11.5 102350 41
2011-05-23 06:25:57 51°13.761 2°55.691 -999 24 11.5 102360 41
2011-05-23 06:26:02 51°13.768 2°55.684 -999 35 11.5 102360 41
2011-05-23 06:26:08 51°13.776 2°55.677 -999 327 11.6 102360 41
2011-05-23 06:26:12 51°13.782 2°55.671 -999 319 11.6 102360 41
2011-05-23 06:26:17 51°13.789 2°55.665 -999 320 11.6 102360 41
2011-05-23 06:26:22 51°13.797 2°55.658 -999 35 11.6 102360 41
2011-05-23 06:26:28 51°13.806 2°55.65 -999 23 11.6 102350 41
2011-05-23 06:26:32 51°13.813 2°55.644 -999 238 11.6 102350 41
2011-05-23 06:26:37 51°13.822 2°55.637 -999 24 11.6 102350 41
2011-05-23 06:26:42 51°13.831 2°55.631 -999 35 11.6 102350 41
2011-05-23 06:26:47 51°13.84 2°55.623 -999 24 11.6 102350 41
2011-05-23 06:26:53 51°13.852 2°55.615 -999 35 11.6 102350 41
2011-05-23 06:26:57 51°13.86 2°55.61 -999 24 11.7 102360 39
2011-05-23 06:27:02 51°13.871 2°55.603 -999 331 11.7 102360 39
2011-05-23 06:27:07 51°13.881 2°55.595 -999 323 11.7 102350 41
2011-05-23 06:27:13 51°13.895 2°55.586 -999 237 11.7 102350 41
2011-05-23 06:27:17 51°13.903 2°55.58 -999 23 11.7 102350 41
2011-05-23 06:27:22 51°13.915 2°55.573 -999 260 11.7 102350 41
2011-05-23 06:27:27 51°13.926 2°55.566 -999 251 11.7 102350 41
2011-05-23 06:27:32 51°13.938 2°55.558 -999 242 11.7 102350 41
2011-05-23 06:27:37 51°13.949 2°55.55 -999 24 11.7 102350 41
2011-05-23 06:27:42 51°13.961 2°55.542 -999 246 11.7 102350 41
2011-05-23 06:27:47 51°13.973 2°55.533 -999 255 11.7 102350 41
2011-05-23 06:27:52 51°13.985 2°55.525 -999 316 11.7 102350 41
2011-05-23 06:27:57 51°13.997 2°55.516 -999 24 11.7 102350 41
2011-05-23 06:28:02 51°14.009 2°55.507 -999 244 11.7 102350 41
2011-05-23 06:28:08 51°14.023 2°55.497 -999 24 11.8 102350 41
2011-05-23 06:28:13 51°14.036 2°55.488 -999 316 11.8 102350 41
2011-05-23 06:28:18 51°14.048 2°55.479 -999 23 11.8 102350 41
2011-05-23 06:28:23 51°14.06 2°55.47 -999 316 11.8 102350 41
2011-05-23 06:28:28 51°14.073 2°55.461 -999 321 11.8 102350 41
2011-05-23 06:28:33 51°14.085 2°55.452 -999 235 11.8 102350 41
2011-05-23 06:28:38 51°14.098 2°55.443 -999 23 11.8 102350 41
2011-05-23 06:28:43 51°14.11 2°55.435 -999 243 11.8 102350 41
2011-05-23 06:28:48 51°14.123 2°55.426 -999 282 11.8 102350 41
2011-05-23 06:28:53 51°14.135 2°55.418 -999 35 11.8 102350 41
2011-05-23 06:28:57 51°14.145 2°55.411 -999 24 11.8 102350 41
2011-05-23 06:29:02 51°14.158 2°55.402 -999 245 11.8 102350 41
2011-05-23 06:29:07 51°14.171 2°55.393 -999 24 11.8 102340 41
2011-05-23 06:29:13 51°14.185 2°55.382 -999 316 11.8 102340 41
2011-05-23 06:29:17 51°14.196 2°55.374 -999 23 11.8 102360 41
2011-05-23 06:29:22 51°14.208 2°55.364 -999 320 11.8 102360 41
2011-05-23 06:29:27 51°14.221 2°55.353 -999 323 11.9 102350 41
2011-05-23 06:29:32 51°14.233 2°55.343 -999 316 11.9 102350 41
2011-05-23 06:29:37 51°14.245 2°55.331 -999 24 11.9 102350 39
2011-05-23 06:29:43 51°14.26 2°55.317 -999 316 11.9 102350 39
2011-05-23 06:29:48 51°14.272 2°55.305 -999 23 11.9 102340 41
2011-05-23 06:29:53 51°14.284 2°55.293 5.5 36 11.9 102340 41
2011-05-23 06:29:58 51°14.296 2°55.279 6.1 21 11.9 102340 41
2011-05-23 06:30:03 51°14.308 2°55.266 7.6 32 11.9 102340 41
2011-05-23 06:30:09 51°14.323 2°55.25 7.1 20 11.9 102350 41
2011-05-23 06:30:14 51°14.336 2°55.237 7.5 238 11.9 102350 41
2011-05-23 06:30:19 51°14.349 2°55.224 5.9 24 11.9 102340 42
2011-05-23 06:30:25 51°14.364 2°55.208 5.2 243 11.9 102340 42
2011-05-23 06:30:29 51°14.374 2°55.197 6.2 26 11.9 102330 41
2011-05-23 06:30:35 51°14.389 2°55.18 8.1 237 11.9 102330 41
2011-05-23 06:30:40 51°14.402 2°55.166 6.3 21 11.9 102340 40
2011-05-23 06:30:45 51°14.415 2°55.151 5.9 242 11.9 102340 40
2011-05-23 06:30:50 51°14.428 2°55.136 6.3 23 11.9 102340 40
2011-05-23 06:30:55 51°14.442 2°55.121 5.6 243 11.9 102340 40
2011-05-23 06:31:01 51°14.459 2°55.104 5.6 243 11.9 102350 40
2011-05-23 06:31:05 51°14.471 2°55.093 6 32 11.9 102350 40
2011-05-23 06:31:10 51°14.486 2°55.08 6.6 284 11.9 102340 41
2011-05-23 06:31:15 51°14.501 2°55.067 6.5 241 11.9 102340 41
2011-05-23 06:31:20 51°14.516 2°55.054 7.1 19 11.9 102340 40
2011-05-23 06:31:25 51°14.531 2°55.04 6.4 241 11.9 102340 40
2011-05-23 06:31:29 51°14.544 2°55.029 6 23 11.9 102350 41
2011-05-23 06:31:34 51°14.559 2°55.015 6.6 238 11.9 102350 41
2011-05-23 06:31:39 51°14.575 2°55.002 5.9 25 11.9 102340 41
2011-05-23 06:31:44 51°14.591 2°54.99 5.7 241 11.9 102340 41
2011-05-23 06:31:49 51°14.607 2°54.978 7 283 11.9 102330 40
2011-05-23 06:31:53 51°14.621 2°54.97 5.8 244 11.9 102330 40
2011-05-23 06:31:58 51°14.638 2°54.96 5.8 20 11.9 102340 40
2011-05-23 06:32:03 51°14.655 2°54.95 7.3 243 11.9 102340 40
2011-05-23 06:32:08 51°14.672 2°54.942 6.2 245 12 102340 40
2011-05-23 06:32:13 51°14.69 2°54.933 6.7 246 12 102340 40
2011-05-23 06:32:17 51°14.704 2°54.927 6.2 25 12 102340 38
2011-05-23 06:32:21 51°14.718 2°54.92 2.6 245 12 102340 38
2011-05-23 06:32:27 51°14.74 2°54.911 3.7 245 12 102350 41
2011-05-23 06:32:32 51°14.758 2°54.904 4.7 246 12 102350 41
2011-05-23 06:32:37 51°14.776 2°54.896 5.4 22 12 102340 41
2011-05-23 06:32:42 51°14.794 2°54.889 7.2 244 12 102340 41
2011-05-23 06:32:47 51°14.812 2°54.881 6 244 12 102350 40
2011-05-23 06:32:52 51°14.83 2°54.873 6.3 242 12 102350 40
2011-05-23 06:32:57 51°14.847 2°54.864 6 23 12 102340 40
2011-05-23 06:33:02 51°14.865 2°54.855 7.2 242 12 102340 40
2011-05-23 06:33:08 51°14.886 2°54.844 7.1 22 12 102340 41
2011-05-23 06:33:12 51°14.9 2°54.836 4 241 12 102340 41
2011-05-23 06:33:17 51°14.918 2°54.827 8.3 23 12 102340 41
2011-05-23 06:33:22 51°14.935 2°54.818 7.2 242 12 102340 41
2011-05-23 06:33:27 51°14.953 2°54.809 7.1 24 12.1 102350 40
2011-05-23 06:33:33 51°14.974 2°54.799 6.9 244 12.1 102350 40
2011-05-23 06:33:37 51°14.988 2°54.793 7.7 281 12.1 102330 41
2011-05-23 06:33:42 51°15.006 2°54.785 7.6 244 12.1 102330 41
2011-05-23 06:33:47 51°15.024 2°54.777 4.1 244 12.1 102330 41
2011-05-23 06:33:52 51°15.042 2°54.768 7.8 240 12.1 102330 41
2011-05-23 06:33:57 51°15.06 2°54.76 8.3 20 12.1 102330 41
2011-05-23 06:34:02 51°15.078 2°54.751 9.1 245 12.1 102330 41
2011-05-23 06:34:07 51°15.096 2°54.743 4 22 12.1 102350 40
2011-05-23 06:34:12 51°15.113 2°54.735 7.4 250 12.1 102350 40
2011-05-23 06:34:17 51°15.131 2°54.726 8.3 284 12.1 102340 40
2011-05-23 06:34:22 51°15.149 2°54.717 3.7 246 12.1 102340 40
2011-05-23 06:34:27 51°15.166 2°54.709 3.5 25 12.2 102340 41
2011-05-23 06:34:32 51°15.184 2°54.701 7.2 254 12.2 102340 41
2011-05-23 06:34:37 51°15.202 2°54.694 7.6 254 12.2 102330 41
2011-05-23 06:34:42 51°15.221 2°54.688 6.9 250 12.2 102330 41
2011-05-23 06:34:47 51°15.239 2°54.681 7 251 12.2 102330 41
2011-05-23 06:34:52 51°15.257 2°54.675 6.1 248 12.2 102330 41
2011-05-23 06:34:57 51°15.276 2°54.669 6 19 12.2 102330 38
2011-05-23 06:35:02 51°15.294 2°54.663 6.3 244 12.2 102330 38
2011-05-23 06:35:08 51°15.316 2°54.654 7.1 25 12.2 102330 41
2011-05-23 06:35:12 51°15.33 2°54.65 8.2 243 12.2 102330 41
2011-05-23 06:35:17 51°15.348 2°54.642 7.8 243 12.2 102340 41
2011-05-23 06:35:22 51°15.366 2°54.635 7.1 243 12.2 102340 41
2011-05-23 06:35:28 51°15.387 2°54.625 8.4 23 12.2 102340 41
2011-05-23 06:35:32 51°15.402 2°54.618 9.3 243 12.2 102340 41
2011-05-23 06:35:37 51°15.419 2°54.609 7.6 285 12.2 102340 41
2011-05-23 06:35:42 51°15.437 2°54.601 9.3 241 12.2 102340 41
2011-05-23 06:35:47 51°15.455 2°54.592 3.9 24 12.2 102330 41
2011-05-23 06:35:53 51°15.475 2°54.581 7.9 245 12.2 102330 41
2011-05-23 06:35:57 51°15.489 2°54.575 7.6 18 12.2 102330 41
2011-05-23 06:36:02 51°15.507 2°54.566 6.9 244 12.2 102330 41
2011-05-23 06:36:07 51°15.525 2°54.557 9 25 12.2 102320 41
2011-05-23 06:36:12 51°15.542 2°54.549 8.9 245 12.2 102320 41
2011-05-23 06:36:17 51°15.56 2°54.54 4.4 284 12.2 102320 41
2011-05-23 06:36:22 51°15.577 2°54.532 4.9 248 12.2 102320 41
2011-05-23 06:36:27 51°15.595 2°54.524 8.9 248 12.2 102320 41
2011-05-23 06:36:32 51°15.613 2°54.515 9.4 247 12.2 102320 41
2011-05-23 06:36:37 51°15.63 2°54.507 4.6 281 12.2 102320 40
2011-05-23 06:36:42 51°15.648 2°54.498 8.7 251 12.2 102320 40
2011-05-23 06:36:47 51°15.665 2°54.49 9.7 252 12.2 102320 40
2011-05-23 06:36:52 51°15.683 2°54.483 7.3 250 12.2 102320 40
2011-05-23 06:36:57 51°15.701 2°54.476 7.2 22 12.2 102320 40
2011-05-23 06:37:02 51°15.719 2°54.468 7.1 246 12.2 102320 40
2011-05-23 06:37:07 51°15.737 2°54.464 6.9 252 12.2 102330 41
2011-05-23 06:37:12 51°15.755 2°54.456 6.7 252 12.2 102330 41
2011-05-23 06:37:17 51°15.773 2°54.45 6.6 250 12.2 102330 41
2011-05-23 06:37:22 51°15.791 2°54.443 7.2 249 12.2 102330 41
2011-05-23 06:37:28 51°15.812 2°54.435 7.9 251 12.2 102330 41
2011-05-23 06:37:32 51°15.827 2°54.429 7.5 247 12.2 102330 41
2011-05-23 06:37:37 51°15.844 2°54.42 4.2 248 12.2 102330 38
2011-05-23 06:37:42 51°15.862 2°54.411 8.1 249 12.2 102330 38
2011-05-23 06:37:47 51°15.879 2°54.403 7.6 248 12.2 102330 41
2011-05-23 06:37:52 51°15.895 2°54.394 7.9 249 12.2 102330 41
2011-05-23 06:37:57 51°15.911 2°54.385 9 19 12.2 102330 40
2011-05-23 06:38:02 51°15.926 2°54.376 4.8 253 12.2 102330 40
2011-05-23 06:38:07 51°15.939 2°54.368 8.7 250 12.3 102320 40
2011-05-23 06:38:13 51°15.955 2°54.358 9.1 254 12.3 102320 40
2011-05-23 06:38:17 51°15.965 2°54.351 9.8 282 12.3 102330 41
2011-05-23 06:38:22 51°15.978 2°54.343 8.5 253 12.3 102330 41
2011-05-23 06:38:27 51°15.99 2°54.336 4.2 254 12.3 102320 41
2011-05-23 06:38:33 51°16.004 2°54.327 6 253 12.3 102320 41
2011-05-23 06:38:37 51°16.013 2°54.322 9.3 282 12.3 102330 41
2011-05-23 06:38:42 51°16.024 2°54.316 4.3 250 12.3 102330 41
2011-05-23 06:38:47 51°16.034 2°54.31 4.4 254 12.3 102320 40
2011-05-23 06:38:52 51°16.045 2°54.305 8.4 254 12.3 102320 40
2011-05-23 06:38:57 51°16.056 2°54.299 7.2 253 12.3 102330 41
2011-05-23 06:39:02 51°16.066 2°54.294 9.6 255 12.3 102330 41
2011-05-23 06:39:07 51°16.076 2°54.289 8.7 255 12.3 102330 41
2011-05-23 06:39:12 51°16.085 2°54.284 7 255 12.3 102330 41
2011-05-23 06:39:17 51°16.095 2°54.28 7.4 255 12.3 102330 40
2011-05-23 06:39:22 51°16.105 2°54.275 8.5 257 12.3 102330 40
2011-05-23 06:39:27 51°16.114 2°54.271 8.4 256 12.3 102330 41
2011-05-23 06:39:32 51°16.124 2°54.267 7.1 259 12.3 102330 41
2011-05-23 06:39:37 51°16.133 2°54.263 7.2 258 12.3 102330 41
2011-05-23 06:39:42 51°16.142 2°54.26 3.2 261 12.3 102330 41
2011-05-23 06:39:48 51°16.153 2°54.257 5.4 263 12.3 102330 40
2011-05-23 06:39:52 51°16.161 2°54.255 6.4 261 12.3 102330 40
2011-05-23 06:39:57 51°16.17 2°54.253 5.8 260 12.3 102330 40
2011-05-23 06:40:02 51°16.178 2°54.251 7.1 260 12.3 102330 40
2011-05-23 06:40:07 51°16.186 2°54.249 6.6 260 12.3 102330 41
2011-05-23 06:40:13 51°16.196 2°54.248 6.6 38 12.3 102330 41
2011-05-23 06:40:17 51°16.202 2°54.247 4.8 280 12.3 102340 40
2011-05-23 06:40:22 51°16.209 2°54.246 5 266 12.3 102340 40
2011-05-23 06:40:27 51°16.216 2°54.245 5.2 269 12.3 102340 41
2011-05-23 06:40:33 51°16.224 2°54.244 4.7 266 12.3 102340 41
2011-05-23 06:40:37 51°16.229 2°54.244 5.6 278 12.3 102330 40
2011-05-23 06:40:42 51°16.235 2°54.243 4.1 265 12.3 102330 40
2011-05-23 06:40:47 51°16.241 2°54.242 5.4 264 12.3 102330 41
2011-05-23 06:40:53 51°16.248 2°54.24 6 263 12.3 102330 41
2011-05-23 06:40:57 51°16.252 2°54.24 7.5 262 12.3 102330 41
2011-05-23 06:41:02 51°16.256 2°54.238 7.2 260 12.3 102330 41
2011-05-23 06:41:07 51°16.26 2°54.238 6.4 261 12.3 102330 40
2011-05-23 06:41:12 51°16.264 2°54.237 4.7 263 12.3 102330 40
2011-05-23 06:41:17 51°16.267 2°54.237 5.4 284 12.3 102330 40
2011-05-23 06:41:22 51°16.27 2°54.237 5.6 264 12.3 102330 40
2011-05-23 06:41:27 51°16.272 2°54.238 5 267 12.3 102330 40
2011-05-23 06:41:32 51°16.274 2°54.239 7.5 268 12.3 102330 40
2011-05-23 06:41:37 51°16.276 2°54.24 8.1 268 12.3 102330 41
2011-05-23 06:41:42 51°16.276 2°54.242 7.9 36 12.3 102330 41
2011-05-23 06:41:48 51°16.277 2°54.244 6.5 270 12.3 102330 41
2011-05-23 06:41:52 51°16.277 2°54.246 8.7 270 12.3 102330 41
2011-05-23 06:41:57 51°16.278 2°54.248 7.5 270 12.3 102330 41
2011-05-23 06:42:02 51°16.278 2°54.25 8.6 270 12.3 102330 41
2011-05-23 06:42:08 51°16.279 2°54.252 7.3 269 12.3 102330 38
2011-05-23 06:42:12 51°16.28 2°54.254 7.5 270 12.3 102330 38
2011-05-23 06:42:17 51°16.28 2°54.256 6.4 284 12.2 102330 43
2011-05-23 06:42:22 51°16.281 2°54.258 7 270 12.2 102330 43
2011-05-23 06:42:28 51°16.282 2°54.261 5.5 268 12.2 102330 41
2011-05-23 06:42:33 51°16.282 2°54.263 7.4 40 12.2 102330 41
2011-05-23 06:42:37 51°16.283 2°54.264 7.3 75 12.2 102330 41
2011-05-23 06:42:42 51°16.284 2°54.266 7.4 43 12.2 102330 41
2011-05-23 06:42:48 51°16.285 2°54.269 7.2 26 12.1 102330 40
2011-05-23 06:42:53 51°16.286 2°54.271 8.3 31 12.1 102330 40
2011-05-23 06:42:58 51°16.287 2°54.273 7.3 24 12.1 102330 38
2011-05-23 06:43:03 51°16.287 2°54.275 7.1 37 12.1 102330 38
2011-05-23 06:43:08 51°16.288 2°54.277 6.3 25 12.1 102330 41
2011-05-23 06:43:13 51°16.289 2°54.279 6 32 12.1 102330 41
2011-05-23 06:43:18 51°16.29 2°54.281 6.5 81 12.1 102330 41
2011-05-23 06:43:23 51°16.291 2°54.283 8.9 33 12.1 102330 41
2011-05-23 06:43:28 51°16.292 2°54.285 7.1 28 12.1 102330 39
2011-05-23 06:43:33 51°16.292 2°54.287 8 31 12.1 102330 39
2011-05-23 06:43:37 51°16.293 2°54.289 7.7 21 12.1 102330 41
2011-05-23 06:43:42 51°16.294 2°54.291 9.2 36 12.1 102330 41
2011-05-23 06:43:47 51°16.295 2°54.293 7.5 26 12.2 102330 40
2011-05-23 06:43:53 51°16.296 2°54.295 7.5 37 12.2 102330 40
2011-05-23 06:43:57 51°16.297 2°54.297 7.6 25 12.2 102330 39
2011-05-23 06:44:02 51°16.298 2°54.299 8.1 31 12.2 102330 39
2011-05-23 06:44:08 51°16.299 2°54.301 7.8 23 12.2 102330 41
2011-05-23 06:44:12 51°16.3 2°54.303 7.7 33 12.2 102330 41
2011-05-23 06:44:17 51°16.301 2°54.305 7.6 25 12.1 102330 40
2011-05-23 06:44:22 51°16.302 2°54.307 6.9 39 12.1 102330 40
2011-05-23 06:44:28 51°16.303 2°54.309 7.7 28 12.1 102330 40
2011-05-23 06:44:32 51°16.304 2°54.311 7.2 33 12.1 102330 40
2011-05-23 06:44:37 51°16.305 2°54.313 6.3 79 12.1 102330 41
2011-05-23 06:44:42 51°16.306 2°54.315 6.6 33 12.1 102330 41
2011-05-23 06:44:48 51°16.307 2°54.317 7.2 22 12.1 102330 40
2011-05-23 06:44:53 51°16.308 2°54.319 6.8 270 12.1 102330 40
2011-05-23 06:44:57 51°16.309 2°54.321 7.2 28 12.1 102330 40
2011-05-23 06:45:02 51°16.31 2°54.323 7.2 39 12.1 102330 40
2011-05-23 06:45:07 51°16.311 2°54.325 6.8 25 12 102330 41
2011-05-23 06:45:13 51°16.312 2°54.327 6.8 39 12 102330 41
2011-05-23 06:45:17 51°16.313 2°54.329 6.6 82 12 102330 40
2011-05-23 06:45:22 51°16.314 2°54.331 6.2 36 12 102330 40
2011-05-23 06:45:27 51°16.315 2°54.332 6.2 23 12 102330 41
2011-05-23 06:45:32 51°16.316 2°54.334 6.6 35 12 102330 41
2011-05-23 06:45:37 51°16.317 2°54.336 6 80 12 102330 40
2011-05-23 06:45:42 51°16.318 2°54.338 5.9 35 12 102330 40
2011-05-23 06:45:47 51°16.319 2°54.34 6.9 270 12 102330 41
2011-05-23 06:45:52 51°16.32 2°54.343 6.8 270 12 102330 41
2011-05-23 06:45:57 51°16.321 2°54.345 7.1 23 12 102330 39
2011-05-23 06:46:02 51°16.322 2°54.347 7.5 28 12 102330 39
2011-05-23 06:46:07 51°16.323 2°54.348 7.7 24 12.1 102330 41
2011-05-23 06:46:12 51°16.324 2°54.35 6.2 33 12.1 102330 41
2011-05-23 06:46:17 51°16.325 2°54.352 6.6 25 12 102330 40
2011-05-23 06:46:22 51°16.326 2°54.354 7 34 12 102330 40
2011-05-23 06:46:28 51°16.328 2°54.356 5.1 270 12.1 102340 40
2011-05-23 06:46:32 51°16.329 2°54.357 8.3 269 12.1 102340 40
2011-05-23 06:46:37 51°16.33 2°54.359 6.9 268 12.1 102340 41
2011-05-23 06:46:42 51°16.331 2°54.361 6.1 270 12.1 102340 41
2011-05-23 06:46:47 51°16.332 2°54.363 6.4 269 12.1 102330 39
2011-05-23 06:46:52 51°16.333 2°54.365 7.4 270 12.1 102330 39
2011-05-23 06:46:57 51°16.335 2°54.367 6.6 267 12.1 102330 40
2011-05-23 06:47:02 51°16.336 2°54.369 6.4 267 12.1 102330 40
2011-05-23 06:47:07 51°16.337 2°54.371 6.3 270 12.1 102330 40
2011-05-23 06:47:13 51°16.338 2°54.373 7.4 270 12.1 102330 40
2011-05-23 06:47:17 51°16.338 2°54.374 7.4 74 12.1 102330 40
2011-05-23 06:47:22 51°16.34 2°54.376 6.5 267 12.1 102330 40
2011-05-23 06:47:27 51°16.341 2°54.377 6.4 269 12.1 102340 41
2011-05-23 06:47:32 51°16.342 2°54.379 6 268 12.1 102340 41
2011-05-23 06:47:37 51°16.343 2°54.381 6.7 270 12.1 102340 40
2011-05-23 06:47:42 51°16.344 2°54.382 6.9 269 12.1 102340 40
2011-05-23 06:47:47 51°16.345 2°54.384 5.7 270 12.1 102340 40
2011-05-23 06:47:52 51°16.347 2°54.386 5.4 266 12.1 102340 40
2011-05-23 06:47:57 51°16.348 2°54.388 4.8 267 12.1 102340 40
2011-05-23 06:48:02 51°16.349 2°54.389 3.6 265 12.1 102340 40
2011-05-23 06:48:07 51°16.351 2°54.39 4.9 266 12.1 102340 39
2011-05-23 06:48:12 51°16.352 2°54.391 5.4 263 12.1 102340 39
2011-05-23 06:48:17 51°16.353 2°54.393 4.7 262 12.1 102340 38
2011-05-23 06:48:21 51°16.354 2°54.394 6 267 12.1 102340 38
2011-05-23 06:48:27 51°16.355 2°54.396 4.3 269 12.1 102340 41
2011-05-23 06:48:32 51°16.356 2°54.398 4.4 265 12.1 102340 41
2011-05-23 06:48:37 51°16.358 2°54.399 6 266 12.1 102340 40
2011-05-23 06:48:41 51°16.359 2°54.401 4.7 265 12.1 102340 40
2011-05-23 06:48:47 51°16.36 2°54.403 4.6 263 12.1 102340 40
2011-05-23 06:48:52 51°16.361 2°54.405 6.2 266 12.1 102340 40
2011-05-23 06:48:57 51°16.362 2°54.406 6.5 266 12.2 102330 41
2011-05-23 06:49:02 51°16.363 2°54.408 6.4 267 12.2 102330 41
2011-05-23 06:49:07 51°16.364 2°54.41 6.6 268 12.1 102340 40
2011-05-23 06:49:12 51°16.365 2°54.412 5.7 266 12.1 102340 40
2011-05-23 06:49:17 51°16.367 2°54.414 4.5 263 12.2 102340 40
2011-05-23 06:49:22 51°16.368 2°54.416 5.2 266 12.2 102340 40
2011-05-23 06:49:27 51°16.369 2°54.418 6.9 265 12.2 102340 41
2011-05-23 06:49:32 51°16.37 2°54.419 4.9 264 12.2 102340 41
2011-05-23 06:49:37 51°16.371 2°54.421 5.3 264 12.2 102340 41
2011-05-23 06:49:42 51°16.372 2°54.423 3.9 263 12.2 102340 41
2011-05-23 06:49:47 51°16.373 2°54.425 5.2 263 12.2 102340 40
2011-05-23 06:49:52 51°16.374 2°54.427 5.5 270 12.2 102340 40
2011-05-23 06:49:57 51°16.376 2°54.429 4 270 12.2 102340 40
2011-05-23 06:50:02 51°16.376 2°54.431 6.2 268 12.2 102340 40
2011-05-23 06:50:07 51°16.377 2°54.433 6 266 12.2 102330 40
2011-05-23 06:50:12 51°16.379 2°54.435 6.2 267 12.2 102330 40
2011-05-23 06:50:17 51°16.38 2°54.437 5.3 266 12.2 102340 40
2011-05-23 06:50:22 51°16.381 2°54.438 5 266 12.2 102340 40
2011-05-23 06:50:27 51°16.382 2°54.44 4.1 265 12.2 102340 41
2011-05-23 06:50:32 51°16.383 2°54.442 6.2 267 12.2 102340 41
2011-05-23 06:50:37 51°16.384 2°54.444 6.2 264 12.2 102340 41
2011-05-23 06:50:42 51°16.385 2°54.446 5.6 265 12.2 102340 41
2011-05-23 06:50:47 51°16.386 2°54.448 5.8 265 12.1 102340 39
2011-05-23 06:50:52 51°16.387 2°54.45 6.1 266 12.1 102340 39
2011-05-23 06:50:57 51°16.388 2°54.452 6.2 268 12.2 102340 39
2011-05-23 06:51:02 51°16.389 2°54.453 5.9 266 12.2 102340 39
2011-05-23 06:51:07 51°16.391 2°54.455 6 265 12.2 102340 41
2011-05-23 06:51:12 51°16.392 2°54.456 4.4 263 12.2 102340 41
2011-05-23 06:51:17 51°16.394 2°54.457 5.4 264 12.2 102340 40
2011-05-23 06:51:22 51°16.396 2°54.458 6.2 262 12.2 102340 40
2011-05-23 06:51:27 51°16.399 2°54.459 6.9 262 12.2 102340 41
2011-05-23 06:51:32 51°16.401 2°54.459 8.2 257 12.2 102340 41
2011-05-23 06:51:37 51°16.403 2°54.458 9.7 256 12.2 102340 40
2011-05-23 06:51:42 51°16.406 2°54.457 7.4 252 12.2 102340 40
2011-05-23 06:51:47 51°16.408 2°54.455 7.9 20 12.2 102340 41
2011-05-23 06:51:53 51°16.411 2°54.452 8.6 249 12.2 102340 41
2011-05-23 06:51:57 51°16.412 2°54.45 7.6 23 12.2 102340 41
2011-05-23 06:52:01 51°16.414 2°54.448 6.9 244 12.2 102340 41
2011-05-23 06:52:07 51°16.416 2°54.444 7.9 25 12.2 102340 40
2011-05-23 06:52:12 51°16.418 2°54.44 8.2 243 12.2 102340 40
2011-05-23 06:52:17 51°16.419 2°54.436 7.3 22 12.2 102340 40
2011-05-23 06:52:22 51°16.42 2°54.432 7.2 238 12.2 102340 40
2011-05-23 06:52:27 51°16.421 2°54.427 7.5 22 12.2 102330 41
2011-05-23 06:52:32 51°16.422 2°54.423 7.7 35 12.2 102330 41
2011-05-23 06:52:37 51°16.422 2°54.418 7.7 22 12.3 102330 41
2011-05-23 06:52:42 51°16.422 2°54.413 7.9 315 12.3 102330 41
2011-05-23 06:52:47 51°16.422 2°54.408 9.6 320 12.3 102330 41
2011-05-23 06:52:52 51°16.422 2°54.403 7.2 321 12.3 102330 41
2011-05-23 06:52:57 51°16.421 2°54.399 9 321 12.3 102330 41
2011-05-23 06:53:02 51°16.419 2°54.394 8.3 323 12.3 102330 41
2011-05-23 06:53:07 51°16.418 2°54.39 8.5 330 12.3 102330 40
2011-05-23 06:53:12 51°16.416 2°54.386 7.3 331 12.3 102330 40
2011-05-23 06:53:17 51°16.413 2°54.382 7.8 332 12.3 102330 41
2011-05-23 06:53:22 51°16.411 2°54.379 8.1 338 12.3 102330 41
2011-05-23 06:53:27 51°16.407 2°54.376 9.3 336 12.3 102330 41
2011-05-23 06:53:32 51°16.404 2°54.374 8.2 339 12.3 102330 41
2011-05-23 06:53:37 51°16.4 2°54.371 8.5 336 12.3 102340 38
2011-05-23 06:53:42 51°16.394 2°54.367 10.4 338 12.3 102340 38
2011-05-23 06:53:47 51°16.387 2°54.363 10.4 336 12.3 102340 41
2011-05-23 06:53:52 51°16.379 2°54.358 10.4 335 12.3 102340 41
2011-05-23 06:53:57 51°16.371 2°54.352 11.8 336 12.3 102330 41
2011-05-23 06:54:02 51°16.362 2°54.346 10.3 334 12.3 102330 41
2011-05-23 06:54:07 51°16.353 2°54.339 5.5 332 12.3 102320 40
2011-05-23 06:54:12 51°16.343 2°54.331 13.3 334 12.3 102320 40
2011-05-23 06:54:17 51°16.333 2°54.323 9.9 333 12.3 102320 40
2011-05-23 06:54:21 51°16.325 2°54.315 11 330 12.3 102320 40
2011-05-23 06:54:27 51°16.314 2°54.303 5.3 333 12.3 102320 40
2011-05-23 06:54:32 51°16.304 2°54.292 14.4 330 12.3 102320 40
2011-05-23 06:54:37 51°16.294 2°54.281 13.1 329 12.3 102320 40
2011-05-23 06:54:42 51°16.284 2°54.269 13.1 327 12.3 102320 40
2011-05-23 06:54:47 51°16.275 2°54.257 11.8 329 12.3 102320 40
2011-05-23 06:54:52 51°16.265 2°54.243 13.7 330 12.3 102320 40
2011-05-23 06:54:57 51°16.256 2°54.23 11.8 328 12.3 102320 41
2011-05-23 06:55:02 51°16.247 2°54.215 10.9 326 12.3 102320 41
2011-05-23 06:55:07 51°16.239 2°54.2 12 328 12.3 102320 41
2011-05-23 06:55:12 51°16.23 2°54.184 13.4 327 12.3 102320 41
2011-05-23 06:55:17 51°16.222 2°54.168 13.2 327 12.3 102320 41
2011-05-23 06:55:22 51°16.214 2°54.152 10.4 327 12.3 102320 41
2011-05-23 06:55:27 51°16.208 2°54.138 11 325 12.3 102310 40
2011-05-23 06:55:32 51°16.202 2°54.124 9.3 325 12.3 102310 40
2011-05-23 06:55:37 51°16.197 2°54.112 5.5 322 12.3 102320 40
2011-05-23 06:55:42 51°16.193 2°54.101 9.2 319 12.3 102320 40
2011-05-23 06:55:47 51°16.19 2°54.09 4.9 320 12.3 102320 40
2011-05-23 06:55:52 51°16.188 2°54.081 8.9 33 12.3 102320 40
2011-05-23 06:55:57 51°16.186 2°54.072 9 20 12.3 102320 39
2011-05-23 06:56:02 51°16.186 2°54.063 9.7 234 12.3 102320 39
2011-05-23 06:56:07 51°16.186 2°54.056 4.7 24 12.3 102310 41
2011-05-23 06:56:13 51°16.187 2°54.049 8.3 236 12.3 102310 41
2011-05-23 06:56:17 51°16.187 2°54.044 4.4 26 12.3 102320 39
2011-05-23 06:56:22 51°16.189 2°54.04 8.4 242 12.3 102320 39
2011-05-23 06:56:27 51°16.19 2°54.036 8.9 24 12.3 102310 39
2011-05-23 06:56:33 51°16.192 2°54.033 8.5 250 12.3 102310 39
2011-05-23 06:56:37 51°16.194 2°54.031 4.4 249 12.4 102320 41
2011-05-23 06:56:41 51°16.194 2°54.03 4.4 253 12.4 102320 41
2011-05-23 06:56:47 51°16.196 2°54.03 7.8 252 12.3 102320 40
2011-05-23 06:56:52 51°16.197 2°54.03 7.6 255 12.3 102320 40
2011-05-23 06:56:57 51°16.199 2°54.03 9.9 253 12.4 102330 40
2011-05-23 06:57:02 51°16.2 2°54.03 9.7 257 12.4 102330 40
2011-05-23 06:57:07 51°16.202 2°54.03 4.4 256 12.4 102340 40
2011-05-23 06:57:12 51°16.203 2°54.031 9.9 260 12.4 102340 40
2011-05-23 06:57:17 51°16.205 2°54.031 8 261 12.4 102340 40
2011-05-23 06:57:22 51°16.206 2°54.031 7.4 261 12.4 102340 40
2011-05-23 06:57:27 51°16.208 2°54.032 7.9 262 12.4 102340 40
2011-05-23 06:57:32 51°16.209 2°54.032 6.1 264 12.4 102340 40
2011-05-23 06:57:37 51°16.211 2°54.033 5.4 264 12.4 102340 41
2011-05-23 06:57:42 51°16.212 2°54.033 4.7 264 12.4 102340 41
2011-05-23 06:57:47 51°16.214 2°54.034 6.5 264 12.4 102350 39
2011-05-23 06:57:52 51°16.215 2°54.035 4.8 263 12.4 102350 39
2011-05-23 06:57:57 51°16.217 2°54.035 4 262 12.4 102350 40
2011-05-23 06:58:02 51°16.218 2°54.036 4.5 263 12.4 102350 40
2011-05-23 06:58:07 51°16.22 2°54.036 6 263 12.4 102350 40
2011-05-23 06:58:12 51°16.222 2°54.037 7.6 263 12.4 102350 40
2011-05-23 06:58:17 51°16.223 2°54.038 4.3 266 12.4 102350 39
2011-05-23 06:58:21 51°16.224 2°54.039 4.6 264 12.4 102350 39
2011-05-23 06:58:27 51°16.226 2°54.04 4.5 264 12.4 102350 41
2011-05-23 06:58:32 51°16.227 2°54.041 4.6 264 12.4 102350 41
2011-05-23 06:58:37 51°16.229 2°54.042 4.9 266 12.4 102350 41
2011-05-23 06:58:42 51°16.23 2°54.043 4.7 259 12.4 102350 41
2011-05-23 06:58:47 51°16.232 2°54.044 6.5 262 12.4 102350 40
2011-05-23 06:58:52 51°16.233 2°54.045 7.5 261 12.4 102350 40
2011-05-23 06:58:57 51°16.234 2°54.046 5.7 262 12.4 102360 38
2011-05-23 06:59:02 51°16.236 2°54.047 4.9 264 12.4 102360 38
2011-05-23 06:59:07 51°16.237 2°54.048 5.4 261 12.4 102350 41
2011-05-23 06:59:12 51°16.238 2°54.05 6.4 262 12.4 102350 41
2011-05-23 06:59:17 51°16.239 2°54.051 6.5 261 12.5 102340 40
2011-05-23 06:59:21 51°16.24 2°54.051 4.8 262 12.5 102340 40
2011-05-23 06:59:27 51°16.242 2°54.053 5.6 262 12.5 102360 39
2011-05-23 06:59:32 51°16.243 2°54.054 4.7 262 12.5 102360 39
2011-05-23 06:59:37 51°16.244 2°54.055 7 261 12.5 102350 40
2011-05-23 06:59:42 51°16.245 2°54.056 6.6 261 12.5 102350 40
2011-05-23 06:59:47 51°16.246 2°54.057 6.1 260 12.5 102340 39
2011-05-23 06:59:52 51°16.247 2°54.058 7 261 12.5 102340 39
2011-05-23 06:59:57 51°16.248 2°54.06 6.2 260 12.5 102340 40
2011-05-23 07:00:02 51°16.25 2°54.061 4.8 263 12.5 102340 40
2011-05-23 07:00:07 51°16.251 2°54.062 6 262 12.5 102350 40
2011-05-23 07:00:12 51°16.252 2°54.063 5.1 262 12.5 102350 40
2011-05-23 07:00:17 51°16.253 2°54.064 5.7 265 12.5 102350 40
2011-05-23 07:00:21 51°16.254 2°54.065 7.6 265 12.5 102350 40
2011-05-23 07:00:27 51°16.255 2°54.067 5.6 266 12.5 102350 41
2011-05-23 07:00:32 51°16.256 2°54.068 5.5 264 12.5 102350 41
2011-05-23 07:00:37 51°16.257 2°54.069 6.8 267 12.5 102350 39
2011-05-23 07:00:42 51°16.259 2°54.07 6.2 267 12.5 102350 39
2011-05-23 07:00:47 51°16.26 2°54.072 5.6 270 12.5 102360 40
2011-05-23 07:00:52 51°16.261 2°54.073 6.1 267 12.5 102360 40
2011-05-23 07:00:57 51°16.262 2°54.074 5 264 12.5 102360 39
2011-05-23 07:01:02 51°16.263 2°54.075 6.4 268 12.5 102360 39
2011-05-23 07:01:07 51°16.265 2°54.077 4.6 268 12.5 102360 39
2011-05-23 07:01:12 51°16.266 2°54.078 5.2 266 12.5 102360 39
2011-05-23 07:01:17 51°16.267 2°54.079 6.4 266 12.5 102360 39
2011-05-23 07:01:22 51°16.268 2°54.081 5 265 12.5 102360 39
2011-05-23 07:01:27 51°16.269 2°54.082 5.2 26 12.5 102360 39
2011-05-23 07:01:32 51°16.27 2°54.083 5.7 266 12.5 102360 39
2011-05-23 07:01:37 51°16.271 2°54.085 4.7 269 12.5 102350 38
2011-05-23 07:01:42 51°16.272 2°54.086 3.4 262 12.5 102350 38
2011-05-23 07:01:47 51°16.273 2°54.087 6 265 12.5 102350 39
2011-05-23 07:01:52 51°16.274 2°54.089 4.4 265 12.5 102350 39
2011-05-23 07:01:57 51°16.276 2°54.09 5.4 264 12.5 102350 39
2011-05-23 07:02:02 51°16.277 2°54.092 5.9 262 12.5 102350 39
2011-05-23 07:02:07 51°16.278 2°54.093 4.6 262 12.5 102350 41
2011-05-23 07:02:12 51°16.279 2°54.094 4.3 263 12.5 102350 41
2011-05-23 07:02:17 51°16.28 2°54.096 5.3 263 12.5 102340 41
2011-05-23 07:02:22 51°16.281 2°54.097 4.7 263 12.5 102340 41
2011-05-23 07:02:27 51°16.282 2°54.098 3.8 263 12.5 102350 41
2011-05-23 07:02:32 51°16.283 2°54.1 4.5 263 12.5 102350 41
2011-05-23 07:02:37 51°16.284 2°54.101 4.6 262 12.5 102350 40
2011-05-23 07:02:42 51°16.286 2°54.102 2.3 264 12.5 102350 40
2011-05-23 07:02:47 51°16.287 2°54.104 2.7 264 12.5 102350 40
2011-05-23 07:02:52 51°16.288 2°54.105 4.2 264 12.5 102350 40
2011-05-23 07:02:57 51°16.289 2°54.107 2.8 264 12.5 102350 40
2011-05-23 07:03:02 51°16.29 2°54.108 4.7 265 12.5 102350 40
2011-05-23 07:03:07 51°16.291 2°54.109 3.9 263 12.5 102350 39
2011-05-23 07:03:12 51°16.292 2°54.111 6.1 262 12.5 102350 39
2011-05-23 07:03:17 51°16.293 2°54.112 6.5 262 12.5 102350 39
2011-05-23 07:03:22 51°16.294 2°54.113 7 260 12.5 102350 39
2011-05-23 07:03:27 51°16.295 2°54.114 5.2 264 12.5 102340 40
2011-05-23 07:03:32 51°16.296 2°54.116 6.2 265 12.5 102340 40
2011-05-23 07:03:37 51°16.298 2°54.117 5.4 264 12.6 102340 40
2011-05-23 07:03:41 51°16.299 2°54.119 0.1 263 12.6 102340 40
2011-05-23 07:03:47 51°16.3 2°54.12 0.1 263 12.6 102340 41
2011-05-23 07:03:52 51°16.301 2°54.122 -999 264 12.6 102340 41
2011-05-23 07:03:57 51°16.302 2°54.123 -999 265 12.6 102360 41
2011-05-23 07:04:02 51°16.303 2°54.125 -999 265 12.6 102360 41
2011-05-23 07:04:07 51°16.304 2°54.126 -999 265 12.6 102350 40
2011-05-23 07:04:12 51°16.305 2°54.128 -999 263 12.6 102350 40
2011-05-23 07:04:17 51°16.306 2°54.129 -999 264 12.6 102350 38
2011-05-23 07:04:22 51°16.307 2°54.131 -999 268 12.6 102350 38
2011-05-23 07:04:27 51°16.308 2°54.132 -999 263 12.6 102360 40
2011-05-23 07:04:32 51°16.309 2°54.134 -999 268 12.6 102360 40
2011-05-23 07:04:37 51°16.31 2°54.135 -999 265 12.6 102360 40
2011-05-23 07:04:42 51°16.311 2°54.136 -999 265 12.6 102360 40
2011-05-23 07:04:47 51°16.312 2°54.138 -999 268 12.7 102350 42
2011-05-23 07:04:52 51°16.313 2°54.139 -999 266 12.7 102350 42
2011-05-23 07:04:57 51°16.314 2°54.14 -999 267 12.7 102360 40
2011-05-23 07:05:02 51°16.315 2°54.142 -999 266 12.7 102360 40
2011-05-23 07:05:07 51°16.316 2°54.143 -999 267 12.7 102350 40
2011-05-23 07:05:13 51°16.317 2°54.145 -999 266 12.7 102350 40
2011-05-23 07:05:17 51°16.318 2°54.146 -999 265 12.7 102350 40
2011-05-23 07:05:22 51°16.319 2°54.147 -999 263 12.7 102350 40
2011-05-23 07:05:27 51°16.32 2°54.148 -999 264 12.7 102360 40
2011-05-23 07:05:32 51°16.321 2°54.15 5 263 12.7 102360 40
2011-05-23 07:05:37 51°16.322 2°54.151 5.3 265 12.7 102350 40
2011-05-23 07:05:41 51°16.323 2°54.152 5.1 264 12.7 102350 40
2011-05-23 07:05:47 51°16.325 2°54.153 3 260 12.7 102350 39
2011-05-23 07:05:52 51°16.326 2°54.155 7.6 261 12.7 102350 39
2011-05-23 07:05:57 51°16.327 2°54.156 4.6 261 12.7 102350 41
2011-05-23 07:06:02 51°16.328 2°54.157 5.7 261 12.7 102350 41
2011-05-23 07:06:07 51°16.329 2°54.159 6.3 261 12.7 102350 41
2011-05-23 07:06:12 51°16.33 2°54.16 6.1 262 12.7 102350 41
2011-05-23 07:06:17 51°16.331 2°54.162 5.8 261 12.7 102350 39
2011-05-23 07:06:22 51°16.332 2°54.163 7 261 12.7 102350 39
2011-05-23 07:06:27 51°16.333 2°54.165 6.9 261 12.7 102350 41
2011-05-23 07:06:32 51°16.334 2°54.166 5.2 263 12.7 102350 41
2011-05-23 07:06:37 51°16.335 2°54.167 6.2 262 12.7 102350 40
2011-05-23 07:06:42 51°16.336 2°54.169 5.6 263 12.7 102350 40
2011-05-23 07:06:47 51°16.337 2°54.17 4.7 260 12.7 102350 40
2011-05-23 07:06:52 51°16.337 2°54.172 6.6 262 12.7 102350 40
2011-05-23 07:06:57 51°16.338 2°54.174 5.7 263 12.7 102350 39
2011-05-23 07:07:01 51°16.339 2°54.174 5.5 264 12.7 102350 39
2011-05-23 07:07:07 51°16.34 2°54.176 5.9 263 12.8 102350 39
2011-05-23 07:07:13 51°16.341 2°54.178 4.8 264 12.8 102350 39
2011-05-23 07:07:17 51°16.342 2°54.179 6.7 263 12.8 102360 39
2011-05-23 07:07:21 51°16.343 2°54.181 5.7 262 12.8 102360 39
2011-05-23 07:07:27 51°16.344 2°54.183 6.1 264 12.8 102350 39
2011-05-23 07:07:32 51°16.345 2°54.184 5.8 263 12.8 102350 39
2011-05-23 07:07:37 51°16.346 2°54.186 4.9 263 12.8 102360 40
2011-05-23 07:07:42 51°16.347 2°54.187 6.2 263 12.8 102360 40
2011-05-23 07:07:47 51°16.347 2°54.189 5.4 262 12.7 102360 39
2011-05-23 07:07:52 51°16.348 2°54.19 6.6 264 12.7 102360 39
2011-05-23 07:07:57 51°16.349 2°54.192 5.8 263 12.7 102360 39
2011-05-23 07:08:02 51°16.35 2°54.193 5.6 261 12.7 102360 39
2011-05-23 07:08:07 51°16.351 2°54.195 6.9 263 12.7 102360 38
2011-05-23 07:08:12 51°16.352 2°54.197 6.6 263 12.7 102360 38
2011-05-23 07:08:17 51°16.353 2°54.198 5.5 264 12.7 102360 38
2011-05-23 07:08:22 51°16.354 2°54.2 4.6 265 12.7 102360 38
2011-05-23 07:08:27 51°16.355 2°54.201 5.1 265 12.7 102360 39
2011-05-23 07:08:32 51°16.356 2°54.203 6 261 12.7 102360 39
2011-05-23 07:08:37 51°16.356 2°54.205 5.9 263 12.7 102360 40
2011-05-23 07:08:41 51°16.357 2°54.206 5 264 12.7 102360 40
2011-05-23 07:08:47 51°16.358 2°54.208 5.9 265 12.7 102360 39
2011-05-23 07:08:53 51°16.359 2°54.21 5 264 12.7 102360 39
2011-05-23 07:08:57 51°16.36 2°54.211 5.9 263 12.7 102360 40
2011-05-23 07:09:02 51°16.361 2°54.213 5.7 266 12.7 102360 40
2011-05-23 07:09:07 51°16.362 2°54.214 5.6 264 12.7 102350 40
2011-05-23 07:09:12 51°16.363 2°54.216 5.6 263 12.7 102350 40
2011-05-23 07:09:17 51°16.364 2°54.217 4.7 263 12.7 102360 39
2011-05-23 07:09:22 51°16.365 2°54.219 5.7 266 12.7 102360 39
2011-05-23 07:09:27 51°16.365 2°54.221 5.6 266 12.7 102360 41
2011-05-23 07:09:32 51°16.366 2°54.222 6.3 269 12.7 102360 41
2011-05-23 07:09:37 51°16.367 2°54.224 7.2 269 12.7 102360 39
2011-05-23 07:09:42 51°16.368 2°54.225 5.5 267 12.7 102360 39
2011-05-23 07:09:47 51°16.369 2°54.227 6.3 267 12.7 102360 40
2011-05-23 07:09:53 51°16.37 2°54.229 5.7 268 12.7 102360 40
2011-05-23 07:09:57 51°16.371 2°54.23 6.3 266 12.7 102350 39
2011-05-23 07:10:02 51°16.372 2°54.231 5.8 269 12.7 102350 39
2011-05-23 07:10:07 51°16.373 2°54.233 6.3 266 12.7 102360 40
2011-05-23 07:10:12 51°16.373 2°54.234 6.2 267 12.7 102360 40
2011-05-23 07:10:17 51°16.374 2°54.236 6 267 12.7 102360 39
2011-05-23 07:10:21 51°16.375 2°54.237 5.3 264 12.7 102360 39
2011-05-23 07:10:27 51°16.376 2°54.239 5.7 267 12.7 102370 39
2011-05-23 07:10:32 51°16.377 2°54.241 6.3 264 12.7 102370 39
2011-05-23 07:10:37 51°16.377 2°54.242 4.3 264 12.7 102360 40
2011-05-23 07:10:41 51°16.378 2°54.243 7.4 268 12.7 102360 40
2011-05-23 07:10:47 51°16.379 2°54.245 5.7 267 12.7 102360 40
2011-05-23 07:10:52 51°16.38 2°54.247 7.2 266 12.7 102360 40
2011-05-23 07:10:57 51°16.381 2°54.248 7.8 269 12.7 102360 40
2011-05-23 07:11:02 51°16.382 2°54.25 5.1 265 12.7 102360 40
2011-05-23 07:11:07 51°16.383 2°54.251 5.5 266 12.7 102360 40
2011-05-23 07:11:12 51°16.384 2°54.253 6.1 263 12.7 102360 40
2011-05-23 07:11:17 51°16.384 2°54.254 5.2 263 12.7 102360 39
2011-05-23 07:11:22 51°16.385 2°54.256 5.1 264 12.7 102360 39
2011-05-23 07:11:27 51°16.386 2°54.257 6 263 12.7 102370 40
2011-05-23 07:11:32 51°16.387 2°54.259 6.9 262 12.7 102370 40
2011-05-23 07:11:37 51°16.388 2°54.261 5.4 262 12.7 102360 39
2011-05-23 07:11:42 51°16.388 2°54.262 5.9 262 12.7 102360 39
2011-05-23 07:11:47 51°16.389 2°54.264 5.7 263 12.7 102350 40
2011-05-23 07:11:52 51°16.39 2°54.265 4.8 265 12.7 102350 40
2011-05-23 07:11:57 51°16.391 2°54.267 4.9 264 12.7 102360 40
2011-05-23 07:12:02 51°16.392 2°54.269 5.6 264 12.7 102360 40
2011-05-23 07:12:07 51°16.393 2°54.27 4.9 263 12.7 102350 40
2011-05-23 07:12:12 51°16.393 2°54.272 6.5 266 12.7 102350 40
2011-05-23 07:12:17 51°16.394 2°54.274 4.4 264 12.7 102350 38
2011-05-23 07:12:21 51°16.395 2°54.275 4.4 264 12.7 102350 38
2011-05-23 07:12:27 51°16.396 2°54.277 4.6 265 12.6 102350 40
2011-05-23 07:12:32 51°16.396 2°54.279 7.4 270 12.6 102350 40
2011-05-23 07:12:37 51°16.397 2°54.28 6.7 270 12.7 102350 40
2011-05-23 07:12:41 51°16.398 2°54.281 5.1 265 12.7 102350 40
2011-05-23 07:12:47 51°16.399 2°54.282 5.6 262 12.7 102360 40
2011-05-23 07:12:52 51°16.4 2°54.284 8.2 270 12.7 102360 40
2011-05-23 07:12:57 51°16.401 2°54.286 7.4 268 12.7 102360 39
2011-05-23 07:13:02 51°16.401 2°54.288 6.2 268 12.7 102360 39
2011-05-23 07:13:07 51°16.402 2°54.289 5.5 268 12.7 102350 40
2011-05-23 07:13:12 51°16.403 2°54.291 7.8 269 12.7 102350 40
2011-05-23 07:13:17 51°16.404 2°54.292 5.6 264 12.7 102340 40
2011-05-23 07:13:22 51°16.405 2°54.294 6.5 44 12.7 102340 40
2011-05-23 07:13:27 51°16.406 2°54.295 7 269 12.7 102360 40
2011-05-23 07:13:32 51°16.406 2°54.297 7.4 268 12.7 102360 40
2011-05-23 07:13:37 51°16.407 2°54.299 6 24 12.8 102360 40
2011-05-23 07:13:42 51°16.408 2°54.3 6.4 39 12.8 102360 40
2011-05-23 07:13:47 51°16.409 2°54.302 8.3 25 12.8 102360 39
2011-05-23 07:13:53 51°16.41 2°54.304 7.4 268 12.8 102360 39
2011-05-23 07:13:57 51°16.411 2°54.305 6.4 268 12.8 102360 40
2011-05-23 07:14:01 51°16.411 2°54.306 7.1 268 12.8 102360 40
2011-05-23 07:14:07 51°16.412 2°54.308 6.4 267 12.8 102370 40
2011-05-23 07:14:13 51°16.413 2°54.31 7.8 271 12.8 102370 40
2011-05-23 07:14:17 51°16.414 2°54.311 7.9 270 12.8 102350 41
2011-05-23 07:14:21 51°16.414 2°54.312 7.7 270 12.8 102350 41
2011-05-23 07:14:27 51°16.415 2°54.314 7.4 268 12.8 102360 39
2011-05-23 07:14:32 51°16.416 2°54.316 9 269 12.8 102360 39
2011-05-23 07:14:37 51°16.417 2°54.317 7.9 269 12.8 102350 40
2011-05-23 07:14:42 51°16.418 2°54.319 6.6 267 12.8 102350 40
2011-05-23 07:14:47 51°16.419 2°54.321 6.7 270 12.8 102360 40
2011-05-23 07:14:52 51°16.42 2°54.322 6.5 268 12.8 102360 40
2011-05-23 07:14:57 51°16.421 2°54.323 7.9 269 12.8 102370 38
2011-05-23 07:15:02 51°16.422 2°54.325 5.4 265 12.8 102370 38
2011-05-23 07:15:07 51°16.422 2°54.327 5 268 12.8 102370 40
2011-05-23 07:15:12 51°16.423 2°54.328 4.3 269 12.8 102370 40
2011-05-23 07:15:17 51°16.424 2°54.33 5.2 268 12.7 102360 40
2011-05-23 07:15:22 51°16.425 2°54.331 6.3 270 12.7 102360 40
2011-05-23 07:15:27 51°16.426 2°54.332 5.4 268 12.7 102340 39
2011-05-23 07:15:33 51°16.427 2°54.334 5.8 267 12.7 102340 39
2011-05-23 07:15:37 51°16.428 2°54.335 5.6 266 12.7 102360 39
2011-05-23 07:15:41 51°16.428 2°54.336 5.1 265 12.7 102360 39
2011-05-23 07:15:47 51°16.429 2°54.338 4.5 264 12.7 102350 40
2011-05-23 07:15:52 51°16.43 2°54.339 5 268 12.7 102350 40
2011-05-23 07:15:57 51°16.431 2°54.34 5.3 268 12.7 102360 40
2011-05-23 07:16:02 51°16.432 2°54.341 3.8 264 12.7 102360 40
2011-05-23 07:16:07 51°16.434 2°54.342 4.7 264 12.7 102360 38
2011-05-23 07:16:12 51°16.436 2°54.342 6.5 268 12.7 102360 38
2011-05-23 07:16:17 51°16.438 2°54.342 6.3 268 12.7 102350 38
2011-05-23 07:16:22 51°16.441 2°54.342 6.3 269 12.7 102350 38
2011-05-23 07:16:27 51°16.444 2°54.341 5.7 269 12.7 102360 40
2011-05-23 07:16:32 51°16.448 2°54.34 5.5 270 12.7 102360 40
2011-05-23 07:16:37 51°16.452 2°54.34 5 30 12.7 102350 39
2011-05-23 07:16:42 51°16.456 2°54.339 6 35 12.7 102350 39
2011-05-23 07:16:47 51°16.46 2°54.339 5.7 20 12.7 102360 38
2011-05-23 07:16:52 51°16.465 2°54.34 6.1 34 12.7 102360 38
2011-05-23 07:16:57 51°16.47 2°54.341 6.1 22 12.7 102370 40
2011-05-23 07:17:02 51°16.475 2°54.342 5.9 32 12.7 102370 40
2011-05-23 07:17:07 51°16.481 2°54.344 4.9 28 12.7 102360 39
2011-05-23 07:17:12 51°16.486 2°54.346 5.2 270 12.7 102360 39
2011-05-23 07:17:17 51°16.492 2°54.347 4.4 26 12.7 102350 39
2011-05-23 07:17:21 51°16.496 2°54.348 5.1 267 12.7 102350 39
2011-05-23 07:17:27 51°16.503 2°54.349 5.9 267 12.7 102370 39
2011-05-23 07:17:33 51°16.51 2°54.348 4 265 12.7 102370 39
2011-05-23 07:17:37 51°16.514 2°54.346 3.6 263 12.7 102360 38
2011-05-23 07:17:41 51°16.518 2°54.345 6.4 261 12.7 102360 38
2011-05-23 07:17:47 51°16.525 2°54.342 7.7 258 12.7 102360 39
2011-05-23 07:17:52 51°16.53 2°54.338 7.3 256 12.7 102360 39
2011-05-23 07:17:57 51°16.535 2°54.334 8 256 12.7 102350 38
2011-05-23 07:18:02 51°16.54 2°54.328 7.1 251 12.7 102350 38
2011-05-23 07:18:07 51°16.546 2°54.321 8.8 252 12.7 102340 39
2011-05-23 07:18:12 51°16.551 2°54.313 7.7 249 12.7 102340 39
2011-05-23 07:18:17 51°16.557 2°54.303 9.5 251 12.7 102350 40
2011-05-23 07:18:22 51°16.563 2°54.292 8.7 246 12.7 102350 40
2011-05-23 07:18:27 51°16.569 2°54.279 8.9 26 12.7 102340 39
2011-05-23 07:18:32 51°16.575 2°54.264 8.2 243 12.7 102340 39
2011-05-23 07:18:37 51°16.581 2°54.249 8.1 22 12.8 102330 39
2011-05-23 07:18:42 51°16.587 2°54.232 8.5 239 12.8 102330 39
2011-05-23 07:18:47 51°16.594 2°54.215 7.8 24 12.8 102330 40
2011-05-23 07:18:52 51°16.601 2°54.197 8.8 31 12.8 102330 40
2011-05-23 07:18:57 51°16.609 2°54.178 9.4 25 12.8 102330 39
2011-05-23 07:19:02 51°16.617 2°54.159 9.9 239 12.8 102330 39
2011-05-23 07:19:07 51°16.624 2°54.14 8.5 25 12.8 102330 40
2011-05-23 07:19:12 51°16.632 2°54.12 9.7 242 12.8 102330 40
2011-05-23 07:19:17 51°16.641 2°54.1 8.7 24 12.9 102330 39
2011-05-23 07:19:22 51°16.649 2°54.079 10.4 237 12.9 102330 39
2011-05-23 07:19:27 51°16.658 2°54.058 9.2 24 12.9 102320 40
2011-05-23 07:19:32 51°16.666 2°54.036 4.8 235 12.9 102320 40
2011-05-23 07:19:37 51°16.675 2°54.014 10.5 24 12.9 102310 39
2011-05-23 07:19:41 51°16.682 2°53.996 12.7 32 12.9 102310 39
2011-05-23 07:19:47 51°16.693 2°53.968 9.9 25 12.9 102320 39
2011-05-23 07:19:53 51°16.703 2°53.94 8.5 34 12.9 102320 39
2011-05-23 07:19:57 51°16.709 2°53.92 9.9 21 12.9 102310 38
2011-05-23 07:20:02 51°16.717 2°53.895 10.1 234 12.9 102310 38
2011-05-23 07:20:07 51°16.725 2°53.87 11.2 22 12.9 102310 39
2011-05-23 07:20:12 51°16.733 2°53.845 5.8 234 12.9 102310 39
2011-05-23 07:20:17 51°16.741 2°53.82 5.7 27 12.9 102300 38
2011-05-23 07:20:22 51°16.749 2°53.794 11 236 12.9 102300 38
2011-05-23 07:20:27 51°16.757 2°53.769 10.8 28 12.9 102310 39
2011-05-23 07:20:32 51°16.765 2°53.744 12 34 12.9 102310 39
2011-05-23 07:20:37 51°16.773 2°53.718 11.3 25 12.9 102310 38
2011-05-23 07:20:42 51°16.782 2°53.693 5.4 32 12.9 102310 38
2011-05-23 07:20:47 51°16.791 2°53.668 12 23 12.9 102300 39
2011-05-23 07:20:53 51°16.801 2°53.638 10.4 237 12.9 102300 39
2011-05-23 07:20:57 51°16.808 2°53.617 10.1 25 12.9 102310 39
2011-05-23 07:21:02 51°16.817 2°53.592 5.2 30 12.9 102310 39
2011-05-23 07:21:07 51°16.825 2°53.567 9.8 24 12.9 102300 39
2011-05-23 07:21:12 51°16.834 2°53.543 5.7 33 12.9 102300 39
2011-05-23 07:21:17 51°16.844 2°53.518 11.9 24 12.9 102300 38
2011-05-23 07:21:21 51°16.851 2°53.499 5.1 235 12.9 102300 38
2011-05-23 07:21:27 51°16.863 2°53.47 9.5 23 12.9 102300 39
2011-05-23 07:21:32 51°16.873 2°53.447 5 236 12.9 102300 39
2011-05-23 07:21:37 51°16.884 2°53.424 5.3 26 12.9 102310 38
2011-05-23 07:21:42 51°16.894 2°53.401 10.9 238 12.9 102310 38
2011-05-23 07:21:47 51°16.905 2°53.378 10.5 26 12.9 102300 39
2011-05-23 07:21:52 51°16.916 2°53.356 11.4 235 12.9 102300 39
2011-05-23 07:21:57 51°16.927 2°53.334 13.1 28 12.9 102300 39
2011-05-23 07:22:02 51°16.938 2°53.312 11.5 34 12.9 102300 39
2011-05-23 07:22:07 51°16.949 2°53.29 11.4 23 12.9 102310 39
2011-05-23 07:22:12 51°16.959 2°53.268 5.4 236 12.9 102310 39
2011-05-23 07:22:17 51°16.969 2°53.244 10.5 24 12.9 102320 39
2011-05-23 07:22:22 51°16.979 2°53.221 11.2 33 12.9 102320 39
2011-05-23 07:22:27 51°16.989 2°53.198 12.3 23 12.9 102310 38
2011-05-23 07:22:32 51°16.998 2°53.174 6.2 235 12.9 102310 38
2011-05-23 07:22:37 51°17.008 2°53.15 5.9 25 12.9 102310 39
2011-05-23 07:22:42 51°17.017 2°53.126 5.5 236 12.9 102310 39
2011-05-23 07:22:47 51°17.026 2°53.101 10.3 20 12.9 102300 38
2011-05-23 07:22:53 51°17.036 2°53.071 12.3 33 12.9 102300 38
2011-05-23 07:22:57 51°17.043 2°53.051 5.8 21 12.9 102310 37
2011-05-23 07:23:02 51°17.051 2°53.026 6.2 35 12.9 102310 37
2011-05-23 07:23:07 51°17.06 2°53.001 12.5 26 12.9 102300 39
2011-05-23 07:23:12 51°17.068 2°52.976 5.8 32 12.9 102300 39
2011-05-23 07:23:17 51°17.076 2°52.95 10.7 24 12.9 102300 38
2011-05-23 07:23:22 51°17.085 2°52.925 9.6 35 12.9 102300 38
2011-05-23 07:23:27 51°17.093 2°52.9 9.9 25 12.9 102300 39
2011-05-23 07:23:32 51°17.102 2°52.875 5.5 30 12.9 102300 39
2011-05-23 07:23:37 51°17.11 2°52.849 5.5 24 12.9 102300 39
2011-05-23 07:23:42 51°17.119 2°52.824 10.6 236 12.9 102300 39
2011-05-23 07:23:47 51°17.127 2°52.799 9.5 24 12.9 102310 39
2011-05-23 07:23:52 51°17.136 2°52.773 12.3 237 12.9 102310 39
2011-05-23 07:23:57 51°17.145 2°52.748 5.4 21 12.9 102310 38
2011-05-23 07:24:02 51°17.153 2°52.723 10.7 237 12.9 102310 38
2011-05-23 07:24:07 51°17.163 2°52.698 9.4 20 12.9 102310 39
2011-05-23 07:24:12 51°17.172 2°52.674 10.1 238 12.9 102310 39
2011-05-23 07:24:17 51°17.181 2°52.649 4.6 25 12.9 102320 39
2011-05-23 07:24:22 51°17.191 2°52.625 4.4 238 12.9 102320 39
2011-05-23 07:24:27 51°17.201 2°52.601 11.5 23 13 102310 39
2011-05-23 07:24:33 51°17.213 2°52.572 4.4 234 13 102310 39
2011-05-23 07:24:37 51°17.22 2°52.553 4.7 26 13 102310 38
2011-05-23 07:24:41 51°17.229 2°52.533 5.4 236 13 102310 38
2011-05-23 07:24:47 51°17.241 2°52.505 5.4 24 13 102310 38
2011-05-23 07:24:52 51°17.251 2°52.481 5.9 240 13 102310 38
2011-05-23 07:24:57 51°17.261 2°52.457 10.6 26 13.1 102310 40
2011-05-23 07:25:02 51°17.272 2°52.434 9.7 32 13.1 102310 40
2011-05-23 07:25:07 51°17.283 2°52.412 9.4 21 13.1 102310 39
2011-05-23 07:25:12 51°17.295 2°52.39 4.9 238 13.1 102310 39
2011-05-23 07:25:17 51°17.307 2°52.368 9.7 24 13.1 102300 38
2011-05-23 07:25:22 51°17.32 2°52.347 9.5 241 13.1 102300 38
2011-05-23 07:25:27 51°17.333 2°52.327 10.4 19 13.1 102320 39
2011-05-23 07:25:33 51°17.349 2°52.303 10.3 241 13.1 102320 39
2011-05-23 07:25:37 51°17.359 2°52.287 9.7 21 13.1 102300 38
2011-05-23 07:25:42 51°17.373 2°52.267 9.7 243 13.1 102300 38
2011-05-23 07:25:47 51°17.387 2°52.248 4.6 26 13.1 102300 39
2011-05-23 07:25:52 51°17.401 2°52.228 7.6 245 13.1 102300 39
2011-05-23 07:25:57 51°17.414 2°52.208 8.8 20 13.1 102310 39
2011-05-23 07:26:01 51°17.425 2°52.193 9 245 13.1 102310 39
2011-05-23 07:26:07 51°17.442 2°52.168 4.6 20 13.1 102300 38
2011-05-23 07:26:12 51°17.455 2°52.148 4.5 238 13.1 102300 38
2011-05-23 07:26:17 51°17.469 2°52.129 8.4 21 13.1 102320 38
2011-05-23 07:26:21 51°17.48 2°52.113 4.9 240 13.1 102320 38
2011-05-23 07:26:27 51°17.496 2°52.089 5 24 13.1 102320 39
2011-05-23 07:26:32 51°17.51 2°52.069 8.8 241 13.1 102320 39
2011-05-23 07:26:37 51°17.523 2°52.049 9.1 24 13.1 102310 39
2011-05-23 07:26:42 51°17.536 2°52.029 5.1 238 13.1 102310 39
2011-05-23 07:26:47 51°17.55 2°52.01 5.1 20 13.1 102310 39
2011-05-23 07:26:52 51°17.563 2°51.99 8.8 240 13.1 102310 39
2011-05-23 07:26:57 51°17.576 2°51.969 4.4 26 13.1 102300 39
2011-05-23 07:27:02 51°17.589 2°51.949 5.2 240 13.1 102300 39
2011-05-23 07:27:07 51°17.602 2°51.928 10.5 25 13.1 102300 39
2011-05-23 07:27:12 51°17.615 2°51.908 4.7 241 13.1 102300 39
2011-05-23 07:27:17 51°17.628 2°51.887 11.3 22 13.1 102300 39
2011-05-23 07:27:22 51°17.64 2°51.866 9 239 13.1 102300 39
2011-05-23 07:27:27 51°17.653 2°51.845 9 21 13.1 102300 39
2011-05-23 07:27:32 51°17.665 2°51.824 10.4 240 13.1 102300 39
2011-05-23 07:27:37 51°17.678 2°51.802 9.7 19 13.1 102300 39
2011-05-23 07:27:42 51°17.691 2°51.781 10.3 240 13.1 102300 39
2011-05-23 07:27:47 51°17.703 2°51.759 4.7 24 13.1 102310 38
2011-05-23 07:27:53 51°17.718 2°51.734 10.6 238 13.1 102310 38
2011-05-23 07:27:57 51°17.729 2°51.719 5.3 22 13.1 102310 38
2011-05-23 07:28:01 51°17.74 2°51.703 5 237 13.1 102310 38
2011-05-23 07:28:07 51°17.756 2°51.679 9.8 25 13.1 102300 39
2011-05-23 07:28:12 51°17.77 2°51.66 4.5 238 13.1 102300 39
2011-05-23 07:28:17 51°17.784 2°51.642 8.2 24 13.1 102300 37
2011-05-23 07:28:21 51°17.796 2°51.627 4.9 240 13.1 102300 37
2011-05-23 07:28:27 51°17.813 2°51.606 5.2 24 13.1 102300 39
2011-05-23 07:28:32 51°17.828 2°51.588 5 239 13.1 102300 39
2011-05-23 07:28:37 51°17.842 2°51.57 4.9 26 13.1 102310 39
2011-05-23 07:28:42 51°17.857 2°51.552 5 241 13.1 102310 39
2011-05-23 07:28:47 51°17.871 2°51.534 10.2 23 13.1 102310 38
2011-05-23 07:28:52 51°17.886 2°51.516 4.4 239 13.1 102310 38
2011-05-23 07:28:57 51°17.9 2°51.498 9.5 24 13.1 102300 39
2011-05-23 07:29:02 51°17.914 2°51.48 4.6 241 13.1 102300 39
2011-05-23 07:29:07 51°17.929 2°51.462 8.6 24 13.1 102310 38
2011-05-23 07:29:12 51°17.943 2°51.443 10.1 241 13.1 102310 38
2011-05-23 07:29:17 51°17.957 2°51.424 9.4 24 13.1 102310 39
2011-05-23 07:29:22 51°17.971 2°51.405 4.7 240 13.1 102310 39
2011-05-23 07:29:27 51°17.985 2°51.387 10.5 25 13.1 102310 38
2011-05-23 07:29:32 51°17.999 2°51.368 9.7 237 13.1 102310 38
2011-05-23 07:29:37 51°18.013 2°51.348 4.1 24 13.1 102310 39
2011-05-23 07:29:42 51°18.027 2°51.329 4.9 239 13.1 102310 39
2011-05-23 07:29:47 51°18.042 2°51.31 9.1 22 13.1 102300 38
2011-05-23 07:29:53 51°18.058 2°51.287 9.8 240 13.1 102300 38
2011-05-23 07:29:57 51°18.069 2°51.271 10.5 24 13.1 102310 39
2011-05-23 07:30:01 51°18.08 2°51.255 4.4 238 13.1 102310 39
2011-05-23 07:30:07 51°18.097 2°51.232 5.2 20 13.1 102310 38
2011-05-23 07:30:13 51°18.114 2°51.209 5 240 13.1 102310 38
2011-05-23 07:30:17 51°18.125 2°51.194 12.6 25 13.2 102320 38
2011-05-23 07:30:21 51°18.136 2°51.178 9.7 241 13.2 102320 38
2011-05-23 07:30:27 51°18.153 2°51.156 11.6 22 13.2 102310 39
2011-05-23 07:30:32 51°18.167 2°51.136 9.9 31 13.2 102310 39
2011-05-23 07:30:37 51°18.18 2°51.117 11 24 13.1 102310 39
2011-05-23 07:30:42 51°18.194 2°51.098 11 240 13.1 102310 39
2011-05-23 07:30:47 51°18.208 2°51.078 11.6 24 13.1 102300 38
2011-05-23 07:30:52 51°18.222 2°51.058 13.1 240 13.1 102300 38
2011-05-23 07:30:57 51°18.235 2°51.039 5.8 25 13.1 102300 36
2011-05-23 07:31:02 51°18.249 2°51.019 5.1 242 13.1 102300 36
2011-05-23 07:31:07 51°18.263 2°51.001 10.7 24 13.1 102300 38
2011-05-23 07:31:12 51°18.278 2°50.983 9.8 244 13.1 102300 38
2011-05-23 07:31:17 51°18.293 2°50.966 10.1 25 13.1 102300 39
2011-05-23 07:31:22 51°18.308 2°50.95 9.4 246 13.1 102300 39
2011-05-23 07:31:27 51°18.324 2°50.934 8.5 248 13.1 102300 39
2011-05-23 07:31:32 51°18.339 2°50.92 6.9 250 13.1 102300 39
2011-05-23 07:31:37 51°18.353 2°50.907 8.6 250 13.1 102300 38
2011-05-23 07:31:41 51°18.364 2°50.899 8.9 256 13.1 102300 38
2011-05-23 07:31:47 51°18.378 2°50.887 7.9 259 13.1 102320 38
2011-05-23 07:31:53 51°18.392 2°50.878 7 252 13.1 102320 38
2011-05-23 07:31:57 51°18.401 2°50.872 6.8 258 13.1 102330 39
2011-05-23 07:32:02 51°18.41 2°50.867 5.8 262 13.1 102330 39
2011-05-23 07:32:07 51°18.419 2°50.863 4.4 264 13.1 102330 38
2011-05-23 07:32:12 51°18.427 2°50.859 5.7 38 13.1 102330 38
2011-05-23 07:32:17 51°18.435 2°50.856 6.2 268 13.1 102350 38
2011-05-23 07:32:22 51°18.442 2°50.855 5.7 39 13.1 102350 38
2011-05-23 07:32:27 51°18.448 2°50.853 6.3 23 13.1 102330 38
2011-05-23 07:32:32 51°18.454 2°50.852 6.1 31 13.1 102330 38
2011-05-23 07:32:37 51°18.458 2°50.852 8.9 25 13.1 102340 40
2011-05-23 07:32:42 51°18.463 2°50.852 8.6 34 13.1 102340 40
2011-05-23 07:32:47 51°18.466 2°50.852 6.4 26 13.1 102350 40
2011-05-23 07:32:52 51°18.469 2°50.852 7.1 38 13.1 102350 40
2011-05-23 07:32:57 51°18.472 2°50.852 7.2 26 13.1 102350 39
2011-05-23 07:33:02 51°18.474 2°50.853 8.5 38 13.1 102350 39
2011-05-23 07:33:07 51°18.475 2°50.853 7.5 26 13.1 102360 38
2011-05-23 07:33:12 51°18.476 2°50.854 7.4 33 13.1 102360 38
2011-05-23 07:33:17 51°18.477 2°50.855 7.9 22 13.1 102360 39
2011-05-23 07:33:22 51°18.478 2°50.856 9.8 39 13.1 102360 39
2011-05-23 07:33:27 51°18.478 2°50.857 8.9 27 13 102360 38
2011-05-23 07:33:32 51°18.479 2°50.858 8.2 34 13 102360 38
2011-05-23 07:33:37 51°18.48 2°50.859 7.8 26 13 102350 36
2011-05-23 07:33:41 51°18.48 2°50.859 7.3 36 13 102350 36
2011-05-23 07:33:47 51°18.481 2°50.861 7.6 19 13 102360 38
2011-05-23 07:33:53 51°18.482 2°50.862 7.6 39 13 102360 38
2011-05-23 07:33:57 51°18.483 2°50.863 7.7 28 13 102360 39
2011-05-23 07:34:02 51°18.484 2°50.864 9.1 38 13 102360 39
2011-05-23 07:34:07 51°18.485 2°50.865 9.1 22 13 102360 38
2011-05-23 07:34:12 51°18.486 2°50.867 8.6 32 13 102360 38
2011-05-23 07:34:17 51°18.486 2°50.868 8.2 19 13 102360 38
2011-05-23 07:34:22 51°18.487 2°50.869 6.4 34 13 102360 38
2011-05-23 07:34:27 51°18.488 2°50.87 8.7 19 13 102360 38
2011-05-23 07:34:32 51°18.489 2°50.871 9.4 34 13 102360 38
2011-05-23 07:34:37 51°18.49 2°50.872 8.2 26 12.9 102360 39
2011-05-23 07:34:42 51°18.491 2°50.873 8.6 37 12.9 102360 39
2011-05-23 07:34:47 51°18.492 2°50.875 8.2 23 12.9 102360 39
2011-05-23 07:34:52 51°18.493 2°50.876 8.1 39 12.9 102360 39
2011-05-23 07:34:57 51°18.494 2°50.877 8.5 28 12.9 102360 39
2011-05-23 07:35:02 51°18.495 2°50.878 9.3 31 12.9 102360 39
2011-05-23 07:35:07 51°18.496 2°50.88 7.4 25 12.9 102360 38
2011-05-23 07:35:12 51°18.497 2°50.88 8.1 36 12.9 102360 38
2011-05-23 07:35:17 51°18.498 2°50.882 8 22 12.9 102360 38
2011-05-23 07:35:21 51°18.499 2°50.882 7.1 39 12.9 102360 38
2011-05-23 07:35:27 51°18.501 2°50.884 8.4 28 12.9 102360 39
2011-05-23 07:35:33 51°18.502 2°50.885 6.8 39 12.9 102360 39
2011-05-23 07:35:37 51°18.503 2°50.886 6.6 22 12.9 102360 38
2011-05-23 07:35:41 51°18.504 2°50.886 8.4 270 12.9 102360 38
2011-05-23 07:35:47 51°18.505 2°50.888 8 26 12.9 102360 37
2011-05-23 07:35:52 51°18.506 2°50.889 5.2 36 12.9 102360 37
2011-05-23 07:35:57 51°18.507 2°50.89 9 27 12.9 102360 39
2011-05-23 07:36:02 51°18.508 2°50.891 7.6 268 12.9 102360 39
2011-05-23 07:36:07 51°18.509 2°50.892 6.9 269 12.9 102360 38
2011-05-23 07:36:12 51°18.51 2°50.893 8.8 270 12.9 102360 38
2011-05-23 07:36:17 51°18.511 2°50.894 7.9 20 13 102360 37
2011-05-23 07:36:22 51°18.512 2°50.895 7.6 273 13 102360 37
2011-05-23 07:36:27 51°18.513 2°50.896 7.8 33 12.9 102370 39
2011-05-23 07:36:32 51°18.514 2°50.897 7 269 12.9 102370 39
2011-05-23 07:36:37 51°18.515 2°50.898 7.1 270 12.9 102350 37
2011-05-23 07:36:42 51°18.516 2°50.899 6.1 268 12.9 102350 37
2011-05-23 07:36:47 51°18.517 2°50.9 6.2 270 12.9 102360 38
2011-05-23 07:36:52 51°18.518 2°50.901 7.6 270 12.9 102360 38
2011-05-23 07:36:57 51°18.519 2°50.902 6.4 268 12.9 102360 39
2011-05-23 07:37:01 51°18.52 2°50.903 7.3 270 12.9 102360 39
2011-05-23 07:37:07 51°18.521 2°50.904 7 269 12.9 102360 38
2011-05-23 07:37:12 51°18.522 2°50.905 6.2 270 12.9 102360 38
2011-05-23 07:37:17 51°18.523 2°50.906 6.9 269 12.9 102360 39
2011-05-23 07:37:21 51°18.524 2°50.907 7.7 270 12.9 102360 39
2011-05-23 07:37:27 51°18.525 2°50.908 7.1 269 12.9 102360 40
2011-05-23 07:37:32 51°18.527 2°50.909 5.7 266 12.9 102360 40
2011-05-23 07:37:37 51°18.528 2°50.91 4.2 265 13 102360 38
2011-05-23 07:37:42 51°18.529 2°50.911 6.8 270 13 102360 38
2011-05-23 07:37:47 51°18.53 2°50.912 4 268 13 102350 39
2011-05-23 07:37:52 51°18.531 2°50.913 5.9 34 13 102350 39
2011-05-23 07:37:57 51°18.532 2°50.913 4.9 267 13 102340 37
2011-05-23 07:38:02 51°18.532 2°50.914 7.1 248 13 102340 37
2011-05-23 07:38:07 51°18.533 2°50.915 7.2 268 13 102350 38
2011-05-23 07:38:12 51°18.534 2°50.916 7.8 270 13 102350 38
2011-05-23 07:38:17 51°18.535 2°50.916 6.2 267 13 102350 41
2011-05-23 07:38:22 51°18.536 2°50.917 6.5 270 13 102350 41
2011-05-23 07:38:27 51°18.537 2°50.918 5.2 266 13 102340 38
2011-05-23 07:38:32 51°18.538 2°50.919 6.6 265 13 102340 38
2011-05-23 07:38:37 51°18.539 2°50.92 4.5 267 13 102350 39
2011-05-23 07:38:42 51°18.54 2°50.921 6.9 270 13 102350 39
2011-05-23 07:38:47 51°18.541 2°50.921 6.2 31 13 102350 38
2011-05-23 07:38:53 51°18.542 2°50.922 7.1 270 13 102350 38
2011-05-23 07:38:57 51°18.543 2°50.923 7.2 327 13 102360 38
2011-05-23 07:39:01 51°18.544 2°50.924 6.2 269 13 102360 38
2011-05-23 07:39:07 51°18.545 2°50.925 7.6 270 13 102350 40
2011-05-23 07:39:12 51°18.546 2°50.926 6.4 269 13 102350 40
2011-05-23 07:39:17 51°18.547 2°50.927 7 269 13.1 102340 38
2011-05-23 07:39:21 51°18.548 2°50.928 6.7 267 13.1 102340 38
2011-05-23 07:39:27 51°18.549 2°50.929 7.6 269 13 102340 38
2011-05-23 07:39:32 51°18.55 2°50.93 7.4 268 13 102340 38
2011-05-23 07:39:37 51°18.551 2°50.931 6.8 270 13.1 102340 37
2011-05-23 07:39:42 51°18.552 2°50.932 6.9 268 13.1 102340 37
2011-05-23 07:39:47 51°18.553 2°50.933 5.4 267 13 102350 38
2011-05-23 07:39:52 51°18.554 2°50.934 5.2 263 13 102350 38
2011-05-23 07:39:57 51°18.555 2°50.934 6.8 265 13.1 102350 39
2011-05-23 07:40:02 51°18.556 2°50.935 5.5 267 13.1 102350 39
2011-05-23 07:40:07 51°18.557 2°50.937 5.4 264 13.1 102350 39
2011-05-23 07:40:12 51°18.558 2°50.938 5 266 13.1 102350 39
2011-05-23 07:40:17 51°18.559 2°50.939 5.8 270 13.1 102350 39
2011-05-23 07:40:22 51°18.56 2°50.94 5.8 267 13.1 102350 39
2011-05-23 07:40:27 51°18.561 2°50.941 7.4 266 13.1 102350 38
2011-05-23 07:40:32 51°18.562 2°50.942 4.8 265 13.1 102350 38
2011-05-23 07:40:37 51°18.563 2°50.943 6 265 13.1 102340 39
2011-05-23 07:40:41 51°18.564 2°50.943 5.7 264 13.1 102340 39
2011-05-23 07:40:47 51°18.565 2°50.945 5.9 263 13.1 102350 38
2011-05-23 07:40:53 51°18.566 2°50.946 5.7 264 13.1 102350 38
2011-05-23 07:40:57 51°18.567 2°50.946 6.5 263 13 102340 38
2011-05-23 07:41:02 51°18.568 2°50.947 6.7 265 13 102340 38
2011-05-23 07:41:07 51°18.569 2°50.948 4.6 264 13 102340 39
2011-05-23 07:41:12 51°18.57 2°50.949 4.3 264 13 102340 39
2011-05-23 07:41:17 51°18.571 2°50.95 4.3 263 13 102350 39
2011-05-23 07:41:22 51°18.572 2°50.952 5.4 266 13 102350 39
2011-05-23 07:41:27 51°18.573 2°50.953 4.8 266 13 102340 39
2011-05-23 07:41:32 51°18.574 2°50.954 5 263 13 102340 39
2011-05-23 07:41:37 51°18.575 2°50.955 5.4 265 13 102340 38
2011-05-23 07:41:42 51°18.576 2°50.956 5.8 267 13 102340 38
2011-05-23 07:41:47 51°18.576 2°50.957 5.9 268 13.1 102340 39
2011-05-23 07:41:52 51°18.577 2°50.958 6 268 13.1 102340 39
2011-05-23 07:41:57 51°18.578 2°50.959 7.5 267 13.1 102340 39
2011-05-23 07:42:02 51°18.579 2°50.96 7.2 270 13.1 102340 39
2011-05-23 07:42:07 51°18.58 2°50.961 7.4 268 13.2 102340 40
2011-05-23 07:42:12 51°18.581 2°50.962 7.1 269 13.2 102340 40
2011-05-23 07:42:17 51°18.582 2°50.963 5.5 267 13.2 102350 39
2011-05-23 07:42:21 51°18.582 2°50.964 6.3 270 13.2 102350 39
2011-05-23 07:42:27 51°18.584 2°50.966 6 267 13.1 102350 38
2011-05-23 07:42:32 51°18.585 2°50.967 6.8 267 13.1 102350 38
2011-05-23 07:42:37 51°18.585 2°50.968 8 268 13.1 102350 39
2011-05-23 07:42:42 51°18.586 2°50.969 6.6 266 13.1 102350 39
2011-05-23 07:42:47 51°18.587 2°50.97 5.6 267 13.1 102350 39
2011-05-23 07:42:52 51°18.588 2°50.971 6.6 268 13.1 102350 39
2011-05-23 07:42:57 51°18.589 2°50.972 6.7 267 13.1 102350 38
2011-05-23 07:43:02 51°18.59 2°50.973 5.9 270 13.1 102350 38
2011-05-23 07:43:07 51°18.591 2°50.974 5.8 269 13.1 102350 39
2011-05-23 07:43:12 51°18.592 2°50.975 8 269 13.1 102350 39
2011-05-23 07:43:17 51°18.592 2°50.976 7.5 267 13.1 102340 39
2011-05-23 07:43:22 51°18.593 2°50.977 8.2 268 13.1 102340 39
2011-05-23 07:43:27 51°18.594 2°50.978 6.3 268 13.2 102350 38
2011-05-23 07:43:33 51°18.595 2°50.979 6.2 268 13.2 102350 38
2011-05-23 07:43:37 51°18.596 2°50.98 6 266 13.2 102350 40
2011-05-23 07:43:42 51°18.597 2°50.981 7.4 267 13.2 102350 40
2011-05-23 07:43:47 51°18.598 2°50.982 6.1 267 13.2 102360 38